7 * 24
多渠道服务支持
COSMOS 2141(COSMOS即宇宙系列)是苏联(CIS)独立后,于1991年4月4日发射的GLONASS(格洛纳斯)导航卫星。格洛纳斯是苏联/俄罗斯开发的全球卫星导航系统,与GPS、北斗、伽利略并列全球四大导航系统,该卫星配置太阳能电池板、L波段传输天线、铯原子钟和激光反射镜阵列,服务全球定位与导航,现已退役,是格洛纳斯早期组网进程中重要组成部分。
俄罗斯(独联体)
(CIS)
| 数据来源 | 国际轨道数据 |
| 星历时间: | 2026-09-09T11:49:57+0800 2天前 查看轨道信息 |
| 半长轴: | 25507.953km |
| 偏心率: | 0.0006178 |
| 轨道倾角: | 64.287° |
| 近地点辐角 | 227.102° |
| 升交点赤经 | 301.239° |
| 平近点角 | 125.880° |
| 近地点: | 19114.057km |
| 远地点: | 19145.575km |
| 周期: | 675.730分钟 |
| 每日圈数: | 2.131029 |